Other Surface Observations
Issued by NWS

Home | Current Version | Previous Version | Text Only | Print | Product List | Glossary On
Versions: 1 2 3 4 5 6 7 8 9 10 11 12 13 14 15 16 17 18 19 20 21 22 23 24 25 26 27 28 29 30 31 32 33 34 35 36 37 38 39 40 41 42 43 44 45 46 47 48 49 50
005
SXUS52 KTAE 060018
OSOTAE
OSOTAE
North Florida/South Alabama/Southwest Georgia Weather Roundup
National Weather Service Tallahassee Florida
700 PM EST FRI FEB 05 2016

Note: "fair" indicates few or no clouds below 12,000 feet with no
significant weather and/or obstructions to visibility.

!FLZ017-115-028-034-025-060100
...North Florida...

CITY           SKY/WX    TMP DP  RH WIND       PRES   REMARKS
TALLAHASSEE    PTCLDY    51  22  31 N5        30.34R
APALACHICOLA   CLEAR     47  28  47 N3        30.34R
PERRY          CLEAR     49  28  43 N3        30.33R
CROSS CITY       N/A     48  30  49 NE6       30.30R
JACKSONVILLE   CLEAR     46  38  73 NE3       30.33R
$$

!FLZ112-006-005-002-011-060100
...Florida Panhandle...

CITY           SKY/WX    TMP DP  RH WIND       PRES   REMARKS
MARIANNA       CLEAR     48  27  44 CALM      30.36R
BONIFAY        FAIR      44  33  65 CALM      30.36R
PANAMA CITY NW FAIR      45  32  60 N5        30.35R WCI  43
TYNDALL AFB    CLEAR     50  24  36 N5        30.35R
TYND DRONE APT FAIR      48  28  46 MISG      30.35R
DE FUNIAK SPR  FAIR      46  22  38 N3        30.37R
EGLIN AFB      CLEAR     47  24  39 N5        30.35R
DESTIN         CLEAR     53  22  29 N7        30.36R
HURLBURT       CLEAR     47  23  38 N5        30.36R
CRESTVIEW      CLEAR     45  26  47 N3        30.38R
PENSACOLA      CLEAR     48  23  37 N5        30.37R
$$

!ALZ063-066-060100
...South Alabama...

CITY           SKY/WX    TMP DP  RH WIND       PRES   REMARKS
DOTHAN         CLEAR     45  26  47 N6        30.39R WCI  42
OZARK CAIRNS   CLEAR     47  20  33 NW6       30.35R WCI  45
FT RUCKER HELI CLEAR     44  21  40 N6        30.35R WCI  41
RUCKER HELI 3  FAIR      45  22  41 NW3       30.37R
RUCKER HELI 2  FAIR      46  24  42 N5        30.35  WCI  44
FLORALA APT    CLEAR     43  26  51 CALM      30.38R
ANDALUSIA      CLEAR     49  22  34 CALM      30.37R
TROY           CLEAR     45  24  43 CALM      30.37S
EUFALA         FAIR      41  28  60 NW3       30.35R
MOBILE         PTCLDY    46  24  42 N6        30.38S WCI  43
$$

!GAZ120>161-060100
...Southwest and South Central Georgia...

CITY           SKY/WX    TMP DP  RH WIND       PRES   REMARKS
THOMASVILLE    FAIR      45  30  57 CALM      30.36R
BAINBRIDGE     PTCLDY    45  32  61 CALM      30.36R
MOODY AFB      CLEAR     44  32  61 N5        30.33R WCI  42
VALDOSTA       CLEAR     43  33  68 CALM      30.34R
MOULTRIE       CLEAR     43  32  65 CALM      30.36R
BLAKELY        CLEAR     46  34  61 CALM      30.36R
ALBANY         CLEAR     44  27  51 CALM      30.37R
TIFTON         FAIR      42  31  63 CALM      30.35R
FITZGERALD     FAIR      43  31  61 CALM      30.37R
CORDELE        FAIR      46  29  51 CALM      30.37R
AMERICUS       FAIR      41  32  70 CALM      30.37R
HOMERVILLE     FAIR      45  37  76 CALM      30.35R
$$

!GMZ750-755-770-775-060100
...Coastal and Buoy Obs...

STATION/POSITION TIME  TEMP    WIND        PRES    VSBY  WAVE
                       AIR SEA DIR/SP/G                  HT/PER
                 (UTC) (F)     (DEG/KT/KT) (MB)    (MI)  (FT/S)
KEATON BEACH     0000   50      10/  4/  5 1026.8R
CEDAR KEY        0000   52      20/  5/  6 1026.0R
C TOWER          NOT AVBL
APALACHICOLA BUO 2350   57 70   20/ 19/ 23 1025.0R         5/ 6
PANAMA CITY BUOY 2350   56 71   30/ 16/ 19 1026.9R         5/ 6
MOBILE BUOY      NOT AVBL
ORANGE BCH AL BU 2350   54 62  360/ 12/ 16 1027.8R         2/ 3
$$




USA.gov is the U.S. government's official web portal to all federal, state and local government web resources and services.